BREEZE-M DEB (TANK), 40260

Orbit data source: Space-Track

BREEZE-M DEB (TANK), 40260 is space debris in HEO originally from a launch on Sat, 27 Sep 2014 UTC launched from the Tyuratam Missile And Space Complex (TTMTR). Debris objects in space refer to the collection of defunct objects orbiting the Earth. Examples of debris include non-operational satellites, rocket bodies, and fragments generated from explosions, collisions, or faulty payload assembly.

Loading next visibility...
Identifier
40260, 2014-058C
Orbit
HEO
Country
Flag of CISCIS
Related business
Manufacturer
Khrunichev
Mission
Spacecraft
Bus & Motor
BRIZ TANK, Unknown motor
Mass
~1,000 kg wet, 1,000 kg dry
Launch date (UTC)
2014-09-27 (11 years ago)
Launch vehicle
Unknown
Launch site
Tyuratam Missile And Space Complex (TTMTR)
Object type
Payload
Rocket body
Debris
Shape & HBR
Torus, 2.0 m
Radar Cross Section
8.218 m², Large (>1 m²)

Expand to show TLE details & history
Last TLE update: 16 hours ago

TLE from 16 hours ago
0 BREEZE-M DEB (TANK)
1 40260U 14058C   25348.15628378  .00000082  00000-0  81639-2 0  9991
2 40260  45.8004 345.2146 7014838  12.1890 358.5187  2.27183341 92337
Epoch: 2025-12-14T03:45Z
TLE epoch observation values (Epoch: 2025-12-14T03:45:02.918Z)
Latitude
-0.00001°
Longitude
-154.13238°
Altitude
1,006.419 km
Speed
9.574 km/s
True Right ascension
23h 00m 48s
True Declination
0° 00' 00"
Sunlit
Object was in daylight at epoch
Visualization orbit readout
Latitude
Unknown
Longitude
Unknown
Altitude
Unknown
Speed
Unknown
Apparent Right ascension
Unknown
Apparent Declination
Unknown
Sunlit
N/A
Visualization observer readout
Local Sidereal Time
18:18:22
Azimuth
Unknown
Elevation
Unknown
Doppler factor
Unknown
Orbital elements
Apogee altitude
35,212.847 km
Perigee altitude
918.778 km
Semi-major axis
24,443.949 km
Eccentricity
0.70148
Inclination
45.8004°
RAAN
345.2146°
Arg. of periapsis
12.189°
True anomaly
348.22188°
Mean anomaly
358.5187°
Eccentric anomaly
355.05224°
Mean motion
0.56792 °/min
Orbital period
633.89 mins
BSTAR
0.0081639
Loading maneuver chart data...
Computing Atmospheric mass density...
Loading historical data...
Loading historical data...
Loading historical data...
Loading historical data...
Loading historical data...
Loading historical data...
Loading historical data...
Other satellites on launch #58 in the year 2014 (2014-09-27 UTC)

Documentation

Showing up to 5 results
|